Regional Weather Roundup
Issued by NWS Kansas City/Pleasant Hill, MO

Home | Current Version | Previous Version | Graphics & Text | Print | Product List | Glossary Off
Versions: 1 2 3 4 5 6 7 8 9 10 11 12 13 14 15 16 17 18 19 20 21 22 23 24 25 26 27 28 29 30 31 32 33 34 35 36 37 38 39 40 41 42 43 44 45 46 47 48 49 50

934
ASUS43 KEAX 210110
RWREAX

WEATHER ROUNDUP FOR EASTERN KANSAS AND NORTHWEST MISSOURI
NATIONAL WEATHER SERVICE KANSAS CITY/PLEASANT HILL MO
700 PM CST MON FEB 20 2017

KSZ040-057-103>105-MOZ028-029-037-043-210200-
...KANSAS CITY METROPOLITAN AREA...

CITY           SKY/WX    TMP DP  RH WIND       PRES   REMARKS
K.C. INTL      CLOUDY    62  51  67 SW10      29.89R
K.C. DOWNTOWN  MOCLDY    65  51  60 SW10      29.89R
LEES SUMMIT    CLOUDY    61  55  81 SW7       29.90R
OLATHE - IXD   CLOUDY    60  51  72 S9        29.90R
OLATHE - OJC   MOCLDY    60  52  74 SW6       29.89R
LAWRENCE       CLOUDY    61  53  75 S6        29.89R

$$

MOZ001>008-011>017-020>025-030>033-038>040-044>046-053-054-210200-
...NORTHERN AND CENTRAL MISSOURI...

CITY           SKY/WX    TMP DP  RH WIND       PRES   REMARKS
ST. JOSEPH     MOCLDY    60  52  74 S7        29.89R
WARRENSBURG    CLOUDY    61  54  77 S5        29.90S
WHITEMAN AFB   CLOUDY    63  61  94 SW7       29.90R
CLINTON        CLOUDY    63  57  82 SW7       29.91R
SEDALIA        LGT RAIN  64  57  78 SW9       29.91R
WARSAW         NOT AVBL
CHILLICOTHE      N/A     61  57  87 S5        29.89R
KIRKSVILLE     CLOUDY    63  56  78 SW6       29.89R

$$

MOZ041-047>049-056>058-063>065-088>090-097-210200-
...EASTERN AND SOUTHERN MISSOURI...

CITY           SKY/WX    TMP DP  RH WIND       PRES   REMARKS
ST. LOUIS INTL CLOUDY    70  54  56 SE17G24   29.93R
SPIRIT OF STL  CLOUDY    70  51  51 SE6       29.90S
COLUMBIA       CLOUDY    62  61  96 SW7       29.90S
JEFFERSON CITY CLOUDY    63  61  93 N3        29.89S
ROLLA          CLOUDY    68  56  65 S7        29.89R
OSAGE BEACH    CLOUDY    63  58  83 S3        29.92R
SPRINGFIELD    CLOUDY    61  53  75 W7        29.92R
BRANSON        CLOUDY    64  55  72 CALM      29.94R
JOPLIN         CLOUDY    61  55  81 SW8       29.93R
WEST PLAINS    CLOUDY    69  57  65 S8        29.93R

$$

IAZ060-094-KSZ022-034>040-054-083-096-NEZ052-066-093-210200-
...KANSAS...SOUTHEAST NEBRASKA AND IOWA...

CITY           SKY/WX    TMP DP  RH WIND       PRES   REMARKS
TOPEKA         CLOUDY    60  52  74 S5        29.87S
MANHATTAN      CLEAR     54  50  86 SW3       29.88R
EMPORIA        CLOUDY    54  50  86 SW7       29.89R
CHANUTE        CLOUDY    60  52  74 SW8       29.92R
WICHITA        PTCLDY    53  51  93 S6        29.89R
OMAHA          PTCLDY    51  43  74 NW6       29.88R
LINCOLN        CLEAR     51  41  68 N5        29.91R
FALLS CITY     MOCLDY    58  53  84 SW8       29.87R
LAMONI         CLOUDY    58  56  93 SW6       29.86R
DES MOINES     LGT RAIN  61  57  87 SW9       29.85R

$$





USA.gov is the U.S. government's official web portal to all federal, state and local government web resources and services.